This is the latest recevied weather packets stored in our database for station/object K6MBY. If no packets are shown the sender has not sent any weather packets the latest 10 day(s).
| Time | Temp. | Humidity | Pressure | Rain* | Wind** | Luminosity | Snow |
|---|---|---|---|---|---|---|---|
| 1776956640 | 9.44° C | 86% | 1025.9 hPa | 0 mm | - | 98 W/m² | - |
| 1776956338 | 9.44° C | 86% | 1026.1 hPa | 0 mm | - | 87 W/m² | - |
| 1776956034 | 9.44° C | 87% | 1025.8 hPa | 0 mm | - | 82 W/m² | - |
| 1776955730 | 9.44° C | 87% | 1026 hPa | 0 mm | - | 87 W/m² | - |
| 1776955428 | 9.44° C | 87% | 1025.9 hPa | 0 mm | - | 80 W/m² | - |
| 1776955127 | 9.44° C | 88% | 1026 hPa | 0 mm | - | 86 W/m² | - |
| 1776954825 | 8.89° C | 88% | 1025.7 hPa | 0 mm | - | 74 W/m² | - |
| 1776954524 | 8.89° C | 88% | 1025.8 hPa | 0 mm | - | 55 W/m² | - |
| 1776954219 | 8.89° C | 88% | 1025.9 hPa | 0 mm | - | 59 W/m² | - |
| 1776953913 | 8.89° C | 89% | 1025.9 hPa | 0 mm | - | 42 W/m² | - |
| 1776953609 | 8.89° C | 89% | 1025.8 hPa | 0 mm | - | 31 W/m² | - |
| 1776953309 | 8.89° C | 89% | 1025.7 hPa | 0 mm | - | 26 W/m² | - |
| 1776953008 | 8.89° C | 89% | 1025.5 hPa | 0 mm | - | 22 W/m² | - |
| 1776952705 | 8.89° C | 89% | 1025.5 hPa | 0 mm | - | 15 W/m² | - |
| 1776952401 | 8.89° C | 89% | 1025.7 hPa | 0 mm | - | 12 W/m² | - |
| 1776952098 | 8.89° C | 90% | 1025.4 hPa | 0 mm | - | 10 W/m² | - |
| 1776951795 | 8.89° C | 90% | 1025.5 hPa | 0 mm | - | 10 W/m² | - |
| 1776951491 | 8.89° C | 90% | 1025.3 hPa | 0 mm | - | 9 W/m² | - |
| 1776951188 | 8.89° C | 90% | 1025.3 hPa | 0 mm | - | 7 W/m² | - |
| 1776950884 | 8.89° C | 90% | 1025.4 hPa | 0 mm | - | 6 W/m² | - |
| 1776950580 | 8.89° C | 90% | 1025.3 hPa | 0 mm | - | 5 W/m² | - |
| 1776950279 | 8.89° C | 90% | 1025.2 hPa | 0 mm | - | 4 W/m² | - |
| 1776949976 | 8.89° C | 90% | 1025.4 hPa | 0 mm | - | 3 W/m² | - |
| 1776949672 | 8.89° C | 90% | 1025.2 hPa | 0 mm | - | 2 W/m² | - |
| 1776949369 | 8.89° C | 90% | 1025.2 hPa | 0 mm | - | 1 W/m² | - |
* Rain latest hour (hover to see other rain measurements)
** Current wind speed in m/s (hover to see current wind gust speed)